Orbital Elements at Epoch 2459000.5 (2020-May-31.0) TDB
Reference: JPL 10 (heliocentric ecliptic J2000)
Element | Value | Uncertainty (1-sigma) | Units |
e | .06580586442851025 | 6.4931e-08 | |
a | 3.053424922394669 | 3.511e-08 | au |
q | 2.852491655908931 | 1.9989e-07 | au |
i | 1.611394936716616 | 6.7895e-06 | deg |
node | 269.2476852377397 | 0.00028719 | deg |
peri | 55.06365169630722 | 0.00029317 | deg |
M | 127.6912840480748 | 5.9438e-05 | deg |
tp | 2458309.245376145449 (2018-Jul-09.74537615) | 0.00031978 | TDB |
period | 1948.853960102303 5.34 | 3.3613e-05 9.203e-08 | d yr |
n | .1847239492389169 | 3.1861e-09 | deg/d |
Q | 3.254358188880407 | 3.742e-08 | au |
|
| | Orbit Determination Parameters
Additional Information
|